TimeCST,TemperatureF,Dew PointF,Humidity,Sea Level PressureIn,VisibilityMPH,Wind Direction,Wind SpeedMPH,Gust SpeedMPH,PrecipitationIn,Events,Conditions,WindDirDegrees,DateUTC
12:15 AM,44.1,33.6,67,30.32,10.0,East,3.5,-,N/A,,Overcast,100,2012-12-31 06:15:00
12:35 AM,44.1,33.6,67,30.32,10.0,East,3.5,-,N/A,,Overcast,100,2012-12-31 06:35:00
12:55 AM,44.2,33.8,67,30.32,10.0,East,3.5,-,N/A,,Overcast,100,2012-12-31 06:55:00
1:15 AM,44.6,33.6,65,30.31,10.0,East,3.5,-,N/A,,Overcast,100,2012-12-31 07:15:00
1:35 AM,44.8,33.8,65,30.29,10.0,East,4.6,-,N/A,,Overcast,90,2012-12-31 07:35:00
1:55 AM,44.8,33.8,65,30.28,10.0,East,4.6,-,N/A,,Overcast,100,2012-12-31 07:55:00
2:15 AM,45.1,33.6,64,30.28,10.0,East,4.6,-,N/A,,Overcast,90,2012-12-31 08:15:00
2:35 AM,45.5,33.3,62,30.27,10.0,East,5.8,-,N/A,,Overcast,90,2012-12-31 08:35:00
2:55 AM,45.7,33.1,61,30.27,10.0,East,5.8,-,N/A,,Overcast,90,2012-12-31 08:55:00
3:15 AM,45.9,32.9,61,30.26,10.0,East,5.8,-,N/A,,Overcast,90,2012-12-31 09:15:00
3:35 AM,46.2,32.7,59,30.25,10.0,East,6.9,-,N/A,,Overcast,90,2012-12-31 09:35:00
3:55 AM,46.4,32.9,59,30.24,10.0,East,9.2,-,N/A,,Overcast,90,2012-12-31 09:55:00
4:15 AM,46.6,33.1,59,30.24,10.0,East,6.9,-,N/A,,Overcast,90,2012-12-31 10:15:00
4:35 AM,46.6,33.3,60,30.23,10.0,East,8.1,-,N/A,,Overcast,90,2012-12-31 10:35:00
4:55 AM,46.6,33.4,60,30.23,10.0,East,6.9,-,N/A,,Overcast,90,2012-12-31 10:55:00
5:15 AM,46.8,33.3,59,30.23,10.0,East,5.8,-,N/A,,Overcast,100,2012-12-31 11:15:00
5:35 AM,46.9,33.8,60,30.22,10.0,East,5.8,-,N/A,,Overcast,100,2012-12-31 11:35:00
6:15 AM,47.5,36.1,65,30.21,10.0,East,5.8,-,N/A,,Overcast,90,2012-12-31 12:15:00
6:55 AM,47.5,37.4,68,30.21,10.0,East,5.8,-,N/A,,Overcast,90,2012-12-31 12:55:00
7:15 AM,47.5,38.7,71,30.19,10.0,East,9.2,-,N/A,,Overcast,90,2012-12-31 13:15:00
7:35 AM,47.7,40.5,76,30.19,10.0,East,6.9,-,N/A,,Overcast,90,2012-12-31 13:35:00
7:55 AM,48.2,42.4,80,30.19,10.0,East,6.9,-,N/A,,Overcast,100,2012-12-31 13:55:00
8:15 AM,48.7,44.2,84,30.20,10.0,East,6.9,-,N/A,,Overcast,100,2012-12-31 14:15:00
8:35 AM,49.3,45.3,86,30.19,7.0,ESE,10.4,-,N/A,,Overcast,110,2012-12-31 14:35:00
8:55 AM,49.8,45.9,86,30.19,10.0,East,3.5,-,N/A,,Overcast,100,2012-12-31 14:55:00
9:15 AM,50.5,46.4,86,30.20,10.0,ESE,5.8,-,N/A,,Overcast,120,2012-12-31 15:15:00
9:35 AM,51.1,46.8,85,30.20,10.0,ESE,8.1,-,N/A,,Overcast,110,2012-12-31 15:35:00
9:55 AM,51.3,46.4,83,30.19,10.0,East,6.9,-,N/A,,Overcast,100,2012-12-31 15:55:00
10:15 AM,51.4,46.0,82,30.17,10.0,ESE,12.7,18.4,N/A,,Overcast,110,2012-12-31 16:15:00
10:35 AM,51.8,46.4,82,30.17,10.0,East,6.9,16.1,N/A,,Overcast,100,2012-12-31 16:35:00
10:55 AM,52.2,46.6,81,30.17,10.0,ESE,8.1,-,N/A,,Overcast,110,2012-12-31 16:55:00
11:15 AM,52.7,46.8,80,30.15,10.0,East,6.9,-,N/A,,Overcast,90,2012-12-31 17:15:00
11:35 AM,53.4,47.3,80,30.16,10.0,ESE,6.9,-,N/A,,Overcast,110,2012-12-31 17:35:00
11:55 AM,53.8,48.0,81,30.14,10.0,ESE,6.9,-,N/A,,Overcast,120,2012-12-31 17:55:00
12:15 PM,54.3,48.4,80,30.14,10.0,ESE,3.5,-,N/A,,Overcast,110,2012-12-31 18:15:00
12:35 PM,54.9,48.9,80,30.12,10.0,ESE,5.8,-,N/A,,Overcast,110,2012-12-31 18:35:00
12:55 PM,55.4,49.5,80,30.10,10.0,ESE,4.6,-,N/A,,Overcast,110,2012-12-31 18:55:00
1:15 PM,55.4,50.4,83,30.09,5.0,ESE,4.6,-,N/A,,Overcast,120,2012-12-31 19:15:00
1:35 PM,55.8,51.1,84,30.08,7.0,ESE,6.9,-,N/A,,Overcast,120,2012-12-31 19:35:00
1:55 PM,56.5,51.6,84,30.07,4.0,SE,4.6,-,N/A,,Haze,140,2012-12-31 19:55:00
2:15 PM,55.8,52.5,89,30.07,4.0,ESE,4.6,-,N/A,,Overcast,110,2012-12-31 20:15:00
2:35 PM,54.9,52.3,91,30.06,7.0,ESE,5.8,-,N/A,,Overcast,110,2012-12-31 20:35:00
2:55 PM,55.4,52.7,91,30.06,7.0,ESE,6.9,-,N/A,,Overcast,110,2012-12-31 20:55:00
3:15 PM,55.9,53.1,90,30.05,10.0,ESE,4.6,-,N/A,,Overcast,120,2012-12-31 21:15:00
3:35 PM,56.5,53.6,90,30.05,10.0,East,5.8,-,N/A,,Overcast,90,2012-12-31 21:35:00
3:55 PM,57.0,53.8,89,30.05,10.0,ESE,8.1,-,N/A,,Overcast,110,2012-12-31 21:55:00
4:15 PM,57.4,54.3,90,30.04,10.0,ESE,4.6,-,N/A,,Overcast,120,2012-12-31 22:15:00
4:35 PM,57.4,54.7,91,30.04,5.0,ESE,4.6,-,N/A,,Overcast,120,2012-12-31 22:35:00
4:55 PM,57.4,55.0,92,30.03,4.0,ESE,5.8,-,N/A,,Overcast,120,2012-12-31 22:55:00
5:15 PM,57.4,55.4,93,30.03,5.0,ESE,6.9,-,N/A,,Overcast,120,2012-12-31 23:15:00
5:35 PM,57.7,55.8,93,30.02,7.0,SE,5.8,-,N/A,,Overcast,130,2012-12-31 23:35:00
5:55 PM,58.1,56.1,93,30.03,7.0,SE,4.6,-,N/A,,Overcast,130,2012-12-31 23:55:00
6:15 PM,58.3,56.3,93,30.02,7.0,SE,5.8,-,N/A,,Overcast,130,2013-01-01 00:15:00
6:35 PM,58.8,56.7,93,30.01,7.0,SE,4.6,-,N/A,,Overcast,130,2013-01-01 00:35:00
6:55 PM,59.0,56.8,93,30.01,5.0,ESE,4.6,-,N/A,,Overcast,120,2013-01-01 00:55:00
7:35 PM,58.8,57.2,94,30.01,3.0,Calm,Calm,-,0.06,Rain,Light Rain,0,2013-01-01 01:35:00
8:35 PM,59.2,58.1,96,30.01,4.0,SSE,3.5,-,0.02,,Drizzle,150,2013-01-01 02:35:00
8:55 PM,59.2,58.1,96,30.01,5.0,SSE,3.5,-,0.03,Rain,Heavy Rain,160,2013-01-01 02:55:00
9:35 PM,59.7,58.5,96,30.00,5.0,Calm,Calm,-,0.04,,Overcast,0,2013-01-01 03:35:00
9:55 PM,59.9,58.8,96,30.00,4.0,Calm,Calm,-,0.09,Rain,Heavy Rain,0,2013-01-01 03:55:00
10:15 PM,60.3,59.2,96,29.98,5.0,SSE,5.8,-,0.01,Rain,Rain,150,2013-01-01 04:15:00
10:35 PM,60.8,59.7,96,29.99,5.0,SSW,4.6,-,0.01,,Drizzle,200,2013-01-01 04:35:00
10:55 PM,61.0,59.9,96,29.99,2.5,SSW,5.8,-,0.09,Rain,Heavy Rain,210,2013-01-01 04:55:00
11:15 PM,61.2,60.1,96,29.98,4.0,Calm,Calm,-,0.04,Rain,Rain,0,2013-01-01 05:15:00
11:35 PM,61.2,60.1,96,29.99,4.0,WSW,4.6,-,0.13,Rain,Heavy Rain,240,2013-01-01 05:35:00
11:55 PM,61.0,59.9,96,29.99,2.5,Calm,Calm,-,0.26,Rain,Heavy Rain,0,2013-01-01 05:55:00